Location: Gombori
(14.9797°N, 2.9419°W)
Time: 18:31:12
(UTC+00:00)

Aurora 2 Rocket - Pass Details

Date: 29 July 2021
Orbit: 389 x 1736 km, 25.0° (Epoch: 21 September)

Event Time Altitude Azimuth Distance (km) Brightness Sun altitude
Rises 20:00:40 0° 258° (WSW) 3,476 7.3 -18.3°
Reaches altitude 10° 20:02:55 10° 261° (W) 2,712 6.6 -18.8°
Maximum altitude 20:09:44 67° 344° (NNW) 1,327 4.3 -20.2°
Enters shadow 20:19:00 11° 65° (ENE) 3,638 6.1 -22.2°
